Weather History for Clinton, IA

Change the Weather History Date:

Saturday, March 2, 2013

  Actual Average Record
Temperature  
Mean Temperature 20 °F -  
Max Temperature 28 °F 42 °F 69 °F (1974)
Min Temperature 12 °F 24 °F -9 °F (2014)
Degree Days  
Heating Degree Days 45    
Moisture  
Dew Point 11 °F    
Average Humidity 70    
Maximum Humidity 86    
Minimum Humidity 47    
Precipitation  
Precipitation 0.00 in - - ()
Sea Level Pressure  
Sea Level Pressure 30.25 in    
Wind  
Wind Speed 8 mph (NNW)    
Max Wind Speed 13 mph    
Max Gust Speed 17 mph    
Visibility 10 miles    
Events      
Averages and records for this station are not official NWS values.
T = Trace of Precipitation, MM = Missing Value Source: NWS Daily Summary

Daily Weather History Graph

Daily Weather History Graph

Search for Another Location

Airport:

Trip Planner

Search our weather history database for the weather conditions in past years. The results will help you decide how hot, cold, wet, or windy it might be!

Date:

Astronomy

Mar. 02, 2013 Rise Set
Actual Time 6:34 AM CST 5:53 PM CST
Civil Twilight 6:06 AM CST 6:21 PM CST
Nautical Twilight 5:34 AM CST 6:53 PM CST
Astronomical Twilight 5:01 AM CST 7:25 PM CST
Moon 11:38 PM CST (3/2) 8:57 AM CST (3/2)
Length of Visible Light 12h 14m
Length of Day
11h 18m
Waning Gibbous, 74% of the Moon is Illuminated
Mar 2
Waning Gibbous
Mar 4
Last Quarter
Mar 11
New
Mar 19
First Quarter
Mar 27
Full

Hourly Weather History & Observations

Time (CST) Temp. Windchill Dew Point Humidity Pressure Visibility Wind Dir Wind Speed Gust Speed Precip Events Conditions
12:15 AM 19.4 °F 12.8 °F 15.8 °F 86% 30.26 in 10.0 mi WNW 4.6 mph - N/A   Overcast
12:35 AM 21.2 °F 10.1 °F 15.8 °F 80% 30.26 in 10.0 mi NNW 10.4 mph - N/A   Overcast
12:55 AM 21.2 °F 10.9 °F 15.8 °F 80% 30.26 in 10.0 mi NNW 9.2 mph - N/A   Overcast
1:15 AM 21.2 °F 10.9 °F 14.0 °F 74% 30.26 in 10.0 mi NNW 9.2 mph - N/A   Overcast
1:35 AM 19.4 °F 8.6 °F 12.2 °F 74% 30.26 in 10.0 mi NNW 9.2 mph - N/A   Overcast
1:55 AM 17.6 °F 5.7 °F 12.2 °F 79% 30.26 in 10.0 mi North 10.4 mph - N/A   Scattered Clouds
2:15 AM 17.6 °F 6.4 °F 10.4 °F 73% 30.25 in 10.0 mi North 9.2 mph - N/A   Clear
2:35 AM 15.8 °F 3.4 °F 10.4 °F 79% 30.25 in 10.0 mi North 10.4 mph - N/A   Clear
2:55 AM 15.8 °F 3.4 °F 10.4 °F 79% 30.24 in 10.0 mi North 10.4 mph - N/A   Clear
3:15 AM 15.8 °F 3.4 °F 10.4 °F 79% 30.24 in 10.0 mi North 10.4 mph - N/A   Clear
3:35 AM 15.8 °F 2.7 °F 10.4 °F 79% 30.24 in 10.0 mi North 11.5 mph - N/A   Clear
3:55 AM 15.8 °F 2.7 °F 8.6 °F 73% 30.24 in 10.0 mi North 11.5 mph - N/A   Clear
4:15 AM 15.8 °F 2.7 °F 8.6 °F 73% 30.24 in 10.0 mi North 11.5 mph - N/A   Clear
4:35 AM 15.8 °F 3.4 °F 8.6 °F 73% 30.24 in 10.0 mi North 10.4 mph - N/A   Clear
4:55 AM 14.0 °F 2.0 °F 8.6 °F 79% 30.24 in 10.0 mi North 9.2 mph - N/A   Clear
5:15 AM 12.2 °F -0.2 °F 8.6 °F 85% 30.25 in 10.0 mi North 9.2 mph - N/A   Clear
5:35 AM 12.2 °F 0.7 °F 8.6 °F 85% 30.25 in 10.0 mi North 8.1 mph - N/A   Clear
5:55 AM 12.2 °F -1.0 °F 8.6 °F 85% 30.25 in 10.0 mi North 10.4 mph - N/A   Clear
6:15 AM 12.2 °F -0.2 °F 8.6 °F 85% 30.26 in 10.0 mi North 9.2 mph - N/A   Clear
6:35 AM 12.2 °F 0.7 °F 8.6 °F 85% 30.26 in 10.0 mi North 8.1 mph - N/A   Clear
6:55 AM 12.2 °F -0.2 °F 8.6 °F 85% 30.27 in 10.0 mi North 9.2 mph - N/A   Clear
7:15 AM 14.0 °F 2.0 °F 10.4 °F 86% 30.27 in 10.0 mi North 9.2 mph - N/A   Clear
7:35 AM 15.8 °F 4.2 °F 8.6 °F 73% 30.27 in 10.0 mi North 9.2 mph - N/A   Clear
7:55 AM 15.8 °F 4.2 °F 8.6 °F 73% 30.27 in 10.0 mi North 9.2 mph - N/A   Clear
8:15 AM 15.8 °F 4.2 °F 8.6 °F 73% 30.27 in 10.0 mi NNE 9.2 mph - N/A   Clear
8:35 AM 17.6 °F 7.3 °F 10.4 °F 73% 30.27 in 10.0 mi North 8.1 mph - N/A   Clear
8:55 AM 17.6 °F 6.4 °F 10.4 °F 73% 30.27 in 10.0 mi North 9.2 mph - N/A   Clear
9:15 AM 19.4 °F 8.6 °F 10.4 °F 68% 30.27 in 10.0 mi North 9.2 mph - N/A   Clear
9:35 AM 19.4 °F 7.9 °F 10.4 °F 68% 30.28 in 10.0 mi North 10.4 mph - N/A   Clear
9:55 AM 21.2 °F 10.9 °F 10.4 °F 63% 30.28 in 10.0 mi North 9.2 mph - N/A   Clear
10:15 AM 21.2 °F 9.5 °F 12.2 °F 68% 30.28 in 10.0 mi North 11.5 mph - N/A   Clear
10:35 AM 23.0 °F 11.7 °F 12.2 °F 63% 30.28 in 10.0 mi North 11.5 mph - N/A   Clear
10:55 AM 24.8 °F 15.3 °F 12.2 °F 59% 30.28 in 10.0 mi NNE 9.2 mph - N/A   Clear
11:15 AM 24.8 °F 17.9 °F 12.2 °F 59% 30.28 in 10.0 mi North 5.8 mph - N/A   Clear
11:35 AM 24.8 °F 14.6 °F 12.2 °F 59% 30.28 in 10.0 mi North 10.4 mph - N/A   Clear
11:55 AM 24.8 °F 14.0 °F 12.2 °F 59% 30.28 in 10.0 mi North 11.5 mph - N/A   Clear
12:15 PM 26.6 °F 16.2 °F 12.2 °F 55% 30.27 in 10.0 mi North 11.5 mph - N/A   Clear
12:35 PM 26.6 °F 16.2 °F 12.2 °F 55% 30.26 in 10.0 mi North 11.5 mph - N/A   Clear
12:55 PM 26.6 °F 16.2 °F 12.2 °F 55% 30.25 in 10.0 mi North 11.5 mph - N/A   Clear
1:15 PM 26.6 °F 15.7 °F 12.2 °F 55% 30.25 in 10.0 mi North 12.7 mph 17.3 mph N/A   Clear
1:35 PM 26.6 °F 16.2 °F 12.2 °F 55% 30.25 in 10.0 mi North 11.5 mph - N/A   Clear
1:55 PM 28.4 °F 19.1 °F 12.2 °F 51% 30.24 in 10.0 mi NNW 10.4 mph - N/A   Clear
2:15 PM 28.4 °F 19.7 °F 12.2 °F 51% 30.23 in 10.0 mi North 9.2 mph - N/A   Clear
2:35 PM 28.4 °F 19.7 °F 12.2 °F 51% 30.23 in 10.0 mi North 9.2 mph - N/A   Clear
2:55 PM 28.4 °F 20.4 °F 12.2 °F 51% 30.23 in 10.0 mi North 8.1 mph - N/A   Clear
3:15 PM 28.4 °F 22.2 °F 10.4 °F 47% 30.22 in 10.0 mi North 5.8 mph - N/A   Clear
3:35 PM 28.4 °F 22.2 °F 12.2 °F 51% 30.23 in 10.0 mi North 5.8 mph - N/A   Clear
3:55 PM 28.4 °F 22.2 °F 12.2 °F 51% 30.23 in 10.0 mi NNW 5.8 mph - N/A   Clear
4:15 PM 28.4 °F 23.3 °F 12.2 °F 51% 30.23 in 10.0 mi NNW 4.6 mph - N/A   Clear
4:35 PM 28.4 °F 24.6 °F 12.2 °F 51% 30.23 in 10.0 mi NW 3.5 mph - N/A   Clear
4:55 PM 26.6 °F 20.0 °F 12.2 °F 55% 30.23 in 10.0 mi WNW 5.8 mph - N/A   Clear
5:15 PM 26.6 °F 18.2 °F 12.2 °F 55% 30.23 in 10.0 mi WNW 8.1 mph - N/A   Clear
5:35 PM 24.8 °F 16.1 °F 12.2 °F 59% 30.23 in 10.0 mi WNW 8.1 mph - N/A   Clear
5:55 PM 23.0 °F 15.8 °F 12.2 °F 63% 30.23 in 10.0 mi WNW 5.8 mph - N/A   Clear
6:15 PM 21.2 °F 12.6 °F 12.2 °F 68% 30.24 in 10.0 mi WNW 6.9 mph - N/A   Clear
6:35 PM 19.4 °F 11.5 °F 10.4 °F 68% 30.24 in 10.0 mi WNW 5.8 mph - N/A   Clear
6:55 PM 19.4 °F 11.5 °F 12.2 °F 74% 30.23 in 10.0 mi WNW 5.8 mph - N/A   Clear
7:15 PM 17.6 °F 9.3 °F 12.2 °F 79% 30.23 in 10.0 mi WNW 5.8 mph - N/A   Clear
7:35 PM 15.8 °F 6.1 °F 10.4 °F 79% 30.23 in 10.0 mi NW 6.9 mph - N/A   Clear
7:55 PM 15.8 °F 7.2 °F 10.4 °F 79% 30.23 in 10.0 mi NW 5.8 mph - N/A   Clear
8:15 PM 15.8 °F 8.6 °F 10.4 °F 79% 30.22 in 10.0 mi NNW 4.6 mph - N/A   Clear
8:35 PM 17.6 °F 9.3 °F 10.4 °F 73% 30.22 in 10.0 mi NNW 5.8 mph - N/A   Clear
8:55 PM 17.6 °F 9.3 °F 10.4 °F 73% 30.22 in 10.0 mi NW 5.8 mph - N/A   Clear
9:15 PM 14.0 °F 3.9 °F 8.6 °F 79% 30.23 in 10.0 mi NW 6.9 mph - N/A   Clear
9:35 PM 15.8 °F 7.2 °F 10.4 °F 79% 30.22 in 10.0 mi NW 5.8 mph - N/A   Clear
9:55 PM 15.8 °F 7.2 °F 10.4 °F 79% 30.22 in 10.0 mi NNW 5.8 mph - N/A   Clear
10:15 PM 12.2 °F 4.3 °F 5.0 °F 73% 30.22 in 10.0 mi NW 4.6 mph - N/A   Clear
10:35 PM 14.0 °F 6.5 °F 5.0 °F 67% 30.22 in 10.0 mi West 4.6 mph - N/A   Clear
10:55 PM 12.2 °F 4.3 °F 6.8 °F 79% 30.21 in 10.0 mi WNW 4.6 mph - N/A   Clear
11:15 PM 12.2 °F 2.9 °F 8.6 °F 85% 30.21 in 10.0 mi WNW 5.8 mph - N/A   Clear
11:35 PM 12.2 °F 1.7 °F 6.8 °F 79% 30.21 in 10.0 mi West 6.9 mph - N/A   Mostly Cloudy
11:55 PM 12.2 °F 2.9 °F 6.8 °F 79% 30.20 in 10.0 mi West 5.8 mph - N/A   Scattered Clouds